IRIDIUM 67

Last updated on Wed Nov 29 2017 00:19:03 GMT+0000 (Greenwich Mean Time)

1 25290U 98021F 17332.48037536 -.00000032 00000-0 -18453-4 0 9992 2 25290 86.3955 155.2637 0001887 87.2367 272.9044 14.34219110 28578
UTC large
Height (km)
Speed (km/s)
/
Latitude / Longitude
Inclination (degrees)
Orbital Period (minutes)
Azimuth
Elevation
Range (km)
Doppler Factor

Next 0 passes for location: London (51.5072 / 0.1276)

Sorry there are no passes over London.